FW5402 Weather Reports


time (UTC)temp
F
wind
direction
speed
knots
gust
knots
rain 1hr
in
rain 24hr
in
rain mn
in
humidity
%
barometer
mb
20260510071528 64 127 0.0 0.9 0.00 0.00 0.00 88 1013.1
20260510070030 64 0 0.0 0.0 0.00 0.00 0.00 87 1013.4
20260510064533 64 0 0.0 0.0 0.00 0.00 0.00 87 1013.1
20260510063028 64 0 0.0 0.0 0.00 0.00 0.00 86 1013.2
20260510061530 65 0 0.0 0.0 0.00 0.00 0.00 86 1013.5
20260510060028 65 0 0.0 0.0 0.00 0.00 0.00 85 1013.4
20260510054531 65 0 0.0 0.0 0.00 0.00 0.00 84 1013.3
20260510053029 66 0 0.0 0.0 0.00 0.00 0.00 83 1013.2
20260510051528 66 0 0.0 0.9 0.00 0.00 0.00 83 1013.0
20260510050029 67 0 0.0 0.0 0.00 0.00 0.00 82 1012.9
20260510044534 67 0 0.0 0.0 0.00 0.00 0.00 81 1012.7
20260510043028 66 0 0.0 0.0 0.00 0.00 0.00 80 1012.9
20260510041529 66 0 0.0 0.9 0.00 0.00 0.00 80 1012.7
20260510040028 66 134 0.0 0.0 0.00 0.00 0.00 80 1012.7
20260510034528 66 0 0.0 0.0 0.00 0.00 0.00 79 1012.7
20260510033030 67 0 0.0 0.0 0.00 0.00 0.00 79 1012.5
20260510031532 67 0 0.0 0.0 0.00 0.00 0.00 78 1012.2
20260510030037 67 0 0.0 0.0 0.00 0.00 0.00 74 1012.1
20260510024528 68 0 0.0 0.0 0.00 0.00 0.00 73 1011.9
20260510023028 68 0 0.0 0.0 0.00 0.00 0.00 75 1011.9
20260510021533 69 134 0.9 0.9 0.00 0.00 0.00 75 1011.7
20260510020030 70 0 0.0 0.0 0.00 0.00 0.00 72 1011.5
20260510014529 70 0 0.0 0.0 0.00 0.00 0.00 71 1011.3
20260510013030 71 0 0.0 0.0 0.00 0.00 0.00 69 1011.2
20260510011530 72 174 0.0 0.9 0.00 0.00 0.00 67 1011.1
20260510010029 74 0 0.0 0.9 0.00 0.00 0.00 65 1011.2
20260510004528 76 0 0.0 0.9 0.00 0.00 0.00 61 1010.9
20260510003028 79 0 0.0 0.9 0.00 0.00 0.00 57 1010.6
20260510001528 80 0 0.9 3.5 0.00 0.00 0.00 56 1010.6
20260510000028 81 121 0.9 2.6 0.00 0.00 0.00 55 1010.4
20260509234528 81 139 0.0 3.5 0.00 0.00 0.00 57 1010.2
20260509233030 81 193 0.9 5.2 0.00 0.00 0.00 56 1010.0
20260509231530 82 105 0.9 4.3 0.00 0.00 0.00 55 1010.2
20260509230028 82 131 1.7 5.2 0.00 0.00 0.00 54 1010.2
20260509224532 81 151 0.9 5.2 0.00 0.00 0.00 58 1010.0
20260509223030 83 122 1.7 7.8 0.00 0.00 0.00 52 1009.9
20260509221531 84 140 0.9 6.1 0.00 0.00 0.00 53 1009.6
20260509220030 84 122 0.0 2.6 0.00 0.00 0.00 54 1009.7
20260509214532 82 131 2.6 7.0 0.00 0.00 0.00 57 1009.7
20260509213028 84 118 1.7 4.3 0.00 0.00 0.00 54 1009.6
20260509211537 84 110 1.7 5.2 0.00 0.00 0.00 51 1009.9
20260509210031 84 110 0.9 4.3 0.00 0.00 0.00 49 1009.9
20260509204530 82 145 0.0 0.9 0.00 0.00 0.00 57 1010.1
20260509203031 82 0 0.0 7.0 0.00 0.00 0.00 56 1010.1
20260509201530 83 239 0.0 3.5 0.00 0.00 0.00 49 1010.6
20260509200027 82 150 0.0 2.6 0.00 0.00 0.00 54 1010.7
20260509194530 82 98 1.7 6.1 0.00 0.00 0.00 49 1010.8
20260509193032 83 82 2.6 6.1 0.00 0.00 0.00 46 1010.7
20260509191532 82 326 1.7 4.3 0.00 0.00 0.00 49 1010.7
20260509190029 82 120 3.5 6.1 0.00 0.00 0.00 51 1010.8
20260509184533 84 118 0.0 1.7 0.00 0.00 0.00 50 1010.9
20260509183030 82 175 1.7 4.3 0.00 0.00 0.00 54 1011.1
20260509181531 81 304 2.6 5.2 0.00 0.00 0.00 52 1011.1
20260509180028 81 331 0.9 7.0 0.00 0.00 0.00 55 1011.2
20260509174528 80 269 0.9 4.3 0.00 0.00 0.00 57 1011.4
20260509173027 79 83 1.7 5.2 0.00 0.00 0.00 57 1011.5
20260509171533 78 76 1.7 4.3 0.00 0.00 0.00 63 1011.6
20260509170029 78 145 0.9 3.5 0.00 0.00 0.00 67 1011.6
20260509164530 77 352 2.6 5.2 0.00 0.00 0.00 63 1011.4
20260509163029 76 95 2.6 5.2 0.00 0.00 0.00 66 1011.5
20260509161530 75 288 1.7 6.1 0.00 0.00 0.00 67 1011.5
20260509160028 76 104 1.7 7.8 0.00 0.00 0.00 67 1011.5
20260509154530 76 94 0.9 4.3 0.00 0.00 0.00 67 1011.5
20260509153030 74 356 2.6 5.2 0.00 0.00 0.00 69 1011.5
20260509151530 73 316 1.7 5.2 0.00 0.00 0.00 69 1011.4
20260509150027 73 318 2.6 4.3 0.00 0.00 0.00 68 1011.3
20260509144534 73 330 0.0 2.6 0.00 0.00 0.00 70 1011.4
20260509143028 72 315 1.7 4.3 0.00 0.00 0.00 70 1011.8
20260509141531 71 0 0.9 2.6 0.00 0.00 0.00 71 1011.8
20260509140029 72 328 0.9 2.6 0.00 0.00 0.00 70 1011.8
20260509134530 70 0 0.0 0.9 0.00 0.00 0.00 75 1011.8
20260509133029 70 0 0.0 0.9 0.00 0.00 0.00 76 1011.8
20260509131528 71 0 0.0 0.0 0.00 0.00 0.00 77 1011.7
20260509130048 69 0 0.0 0.0 0.00 0.00 0.00 76 1011.5
20260509124531 69 0 0.0 0.0 0.00 0.00 0.00 78 1011.5
20260509123030 66 0 0.0 0.0 0.00 0.00 0.00 83 1011.6
20260509121530 62 0 0.0 0.0 0.00 0.00 0.00 89 1011.5
20260509120033 59 0 0.0 0.0 0.00 0.00 0.00 90 1011.1
20260509114530 58 0 0.0 0.0 0.00 0.00 0.00 92 1010.9
20260509113030 56 0 0.0 0.0 0.00 0.00 0.00 90 1010.8
20260509111531 57 0 0.0 0.0 0.00 0.00 0.00 90 1010.6
20260509110029 57 0 0.0 0.0 0.00 0.00 0.00 90 1010.3
20260509104527 57 0 0.0 0.0 0.00 0.00 0.00 89 1010.1
20260509103029 58 0 0.0 0.0 0.00 0.00 0.00 89 1010.0
20260509101534 58 0 0.0 0.0 0.00 0.00 0.00 88 1009.9
20260509100034 59 0 0.0 0.9 0.00 0.00 0.00 88 1009.9
20260509094531 59 0 0.0 0.9 0.00 0.00 0.00 88 1009.7
20260509093027 60 345 0.0 0.9 0.00 0.00 0.00 87 1010.0
20260509091530 60 0 0.0 0.9 0.00 0.00 0.00 85 1010.2
20260509090030 61 0 0.0 0.0 0.00 0.00 0.00 84 1010.1
20260509084536 62 0 0.0 0.0 0.00 0.00 0.00 82 1009.7
20260509083037 63 0 0.0 1.7 0.00 0.00 0.00 81 1009.7
20260509081535 63 0 0.0 0.0 0.00 0.00 0.00 81 1009.8
20260509080035 63 0 0.0 0.9 0.00 0.00 0.00 80 1010.2
20260509074530 64 0 0.0 0.0 0.00 0.00 0.00 79 1010.0
20260509073029 65 0 0.0 0.0 0.00 0.00 0.00 76 1010.1